Time,TemperatureF,DewpointF,PressureIn,WindDirection,WindDirectionDegrees,WindSpeedMPH,WindSpeedGustMPH,Humidity,HourlyPrecipIn,Conditions,Clouds,dailyrainin,SoftwareType,DateUTC
2013-01-26 00:08:00,21.9,19.0,30.22,SW,229,0.0,0.0,89,0.00,,,0.00,weatherlink.com 1.10,2013-01-26 05:08:00,
2013-01-26 00:23:00,21.9,20.0,30.21,SW,229,0.0,0.0,90,0.00,,,0.00,weatherlink.com 1.10,2013-01-26 05:23:00,
2013-01-26 00:39:00,21.7,20.0,30.22,WSW,239,0.0,0.0,91,0.00,,,0.00,weatherlink.com 1.10,2013-01-26 05:39:00,
2013-01-26 00:54:00,21.9,20.0,30.22,WSW,239,0.0,0.0,92,0.00,,,0.00,weatherlink.com 1.10,2013-01-26 05:54:00,
2013-01-26 01:09:00,21.9,20.0,30.22,SW,226,1.0,1.0,92,0.00,,,0.00,weatherlink.com 1.10,2013-01-26 06:09:00,
2013-01-26 01:24:00,22.4,21.0,30.22,SW,231,0.0,1.0,92,0.00,,,0.00,weatherlink.com 1.10,2013-01-26 06:24:00,
2013-01-26 01:39:00,22.3,20.0,30.22,SW,229,0.0,0.0,92,0.00,,,0.00,weatherlink.com 1.10,2013-01-26 06:39:00,
2013-01-26 01:54:00,21.7,20.0,30.23,SW,229,0.0,0.0,92,0.00,,,0.00,weatherlink.com 1.10,2013-01-26 06:54:00,
2013-01-26 02:09:00,21.3,19.0,30.23,SW,229,0.0,0.0,92,0.00,,,0.00,weatherlink.com 1.10,2013-01-26 07:09:00,
2013-01-26 02:24:00,22.1,21.0,30.24,SW,231,0.0,2.0,94,0.00,,,0.00,weatherlink.com 1.10,2013-01-26 07:24:00,
2013-01-26 02:39:00,23.0,21.0,30.25,SSW,195,0.0,3.0,93,0.00,,,0.00,weatherlink.com 1.10,2013-01-26 07:39:00,
2013-01-26 02:54:00,23.3,21.0,30.25,SW,228,2.0,2.0,92,0.00,,,0.00,weatherlink.com 1.10,2013-01-26 07:54:00,
2013-01-26 03:09:00,23.5,22.0,30.24,SW,233,3.0,4.0,92,0.00,,,0.00,weatherlink.com 1.10,2013-01-26 08:09:00,
2013-01-26 03:24:00,23.8,22.0,30.24,SSW,197,1.0,4.0,91,0.00,,,0.00,weatherlink.com 1.10,2013-01-26 08:24:00,
2013-01-26 03:39:00,23.6,21.0,30.24,SW,229,0.0,5.0,91,0.00,,,0.00,weatherlink.com 1.10,2013-01-26 08:39:00,
2013-01-26 03:54:00,23.2,21.0,30.24,SW,218,1.0,2.0,90,0.00,,,0.00,weatherlink.com 1.10,2013-01-26 08:54:00,
2013-01-26 04:09:00,22.9,20.0,30.24,SW,226,1.0,3.0,90,0.00,,,0.00,weatherlink.com 1.10,2013-01-26 09:09:00,
2013-01-26 04:24:00,22.5,20.0,30.25,SW,228,1.0,2.0,90,0.00,,,0.00,weatherlink.com 1.10,2013-01-26 09:24:00,
2013-01-26 04:39:00,21.9,20.0,30.25,SW,225,1.0,2.0,90,0.00,,,0.00,weatherlink.com 1.10,2013-01-26 09:39:00,
2013-01-26 04:54:00,21.7,20.0,30.25,SW,236,2.0,2.0,92,0.00,,,0.00,weatherlink.com 1.10,2013-01-26 09:54:00,
2013-01-26 05:09:00,21.5,19.0,30.25,SW,224,0.0,1.0,91,0.00,,,0.00,weatherlink.com 1.10,2013-01-26 10:09:00,
2013-01-26 05:24:00,20.2,18.0,30.26,WSW,256,1.0,1.0,90,0.00,,,0.00,weatherlink.com 1.10,2013-01-26 10:24:00,
2013-01-26 05:39:00,20.0,18.0,30.26,SW,231,1.0,1.0,92,0.00,,,0.00,weatherlink.com 1.10,2013-01-26 10:39:00,
2013-01-26 05:54:00,19.7,18.0,30.27,SW,231,0.0,1.0,92,0.00,,,0.00,weatherlink.com 1.10,2013-01-26 10:54:00,
2013-01-26 06:09:00,19.7,18.0,30.27,West,264,0.0,0.0,93,0.00,,,0.00,weatherlink.com 1.10,2013-01-26 11:09:00,
2013-01-26 06:24:00,20.5,18.0,30.28,SW,228,0.0,0.0,91,0.00,,,0.00,weatherlink.com 1.10,2013-01-26 11:24:00,
2013-01-26 06:39:00,20.6,18.0,30.29,SW,218,0.0,0.0,89,0.00,,,0.00,weatherlink.com 1.10,2013-01-26 11:39:00,
2013-01-26 06:54:00,20.8,18.0,30.30,WSW,248,1.0,3.0,89,0.00,,,0.00,weatherlink.com 1.10,2013-01-26 11:54:00,
2013-01-26 07:09:00,21.2,18.0,30.31,WSW,239,1.0,4.0,87,0.00,,,0.00,weatherlink.com 1.10,2013-01-26 12:09:00,
2013-01-26 07:24:00,21.0,18.0,30.32,WSW,243,0.0,3.0,86,0.00,,,0.00,weatherlink.com 1.10,2013-01-26 12:24:00,
2013-01-26 07:40:00,20.4,17.0,30.32,West,267,0.0,1.0,86,0.00,,,0.00,weatherlink.com 1.10,2013-01-26 12:40:00,
2013-01-26 07:55:00,20.6,17.0,30.33,North,8,0.0,2.0,84,0.00,,,0.00,weatherlink.com 1.10,2013-01-26 12:55:00,
2013-01-26 08:10:00,20.7,17.0,30.34,WSW,255,2.0,3.0,84,0.00,,,0.00,weatherlink.com 1.10,2013-01-26 13:10:00,
2013-01-26 08:25:00,21.7,17.0,30.35,WNW,290,1.0,4.0,81,0.00,,,0.00,weatherlink.com 1.10,2013-01-26 13:25:00,
2013-01-26 08:40:00,22.5,17.0,30.36,SW,218,2.0,6.0,78,0.00,,,0.00,weatherlink.com 1.10,2013-01-26 13:40:00,
2013-01-26 08:55:00,22.9,17.0,30.36,WNW,289,0.0,4.0,78,0.00,,,0.00,weatherlink.com 1.10,2013-01-26 13:55:00,
2013-01-26 09:10:00,23.6,17.0,30.37,NW,314,0.0,8.0,76,0.00,,,0.00,weatherlink.com 1.10,2013-01-26 14:10:00,
2013-01-26 09:25:00,23.8,17.0,30.38,SSW,197,1.0,4.0,76,0.00,,,0.00,weatherlink.com 1.10,2013-01-26 14:25:00,
2013-01-26 09:40:00,24.1,18.0,30.38,NNW,332,0.0,7.0,76,0.00,,,0.00,weatherlink.com 1.10,2013-01-26 14:40:00,
2013-01-26 09:55:00,24.6,18.0,30.39,WNW,283,1.0,4.0,75,0.00,,,0.00,weatherlink.com 1.10,2013-01-26 14:55:00,
2013-01-26 10:10:00,24.8,18.0,30.39,West,262,2.0,7.0,74,0.00,,,0.00,weatherlink.com 1.10,2013-01-26 15:10:00,
2013-01-26 10:25:00,25.1,18.0,30.40,North,8,2.0,8.0,74,0.00,,,0.00,weatherlink.com 1.10,2013-01-26 15:25:00,
2013-01-26 10:40:00,25.5,18.0,30.41,NNW,341,2.0,6.0,73,0.00,,,0.00,weatherlink.com 1.10,2013-01-26 15:40:00,
2013-01-26 10:55:00,25.9,18.0,30.41,NNW,329,2.0,8.0,73,0.00,,,0.00,weatherlink.com 1.10,2013-01-26 15:55:00,
2013-01-26 11:10:00,26.2,19.0,30.41,NNW,335,3.0,9.0,74,0.00,,,0.00,weatherlink.com 1.10,2013-01-26 16:10:00,
2013-01-26 11:25:00,26.9,19.0,30.42,North,6,7.0,8.0,73,0.00,,,0.00,weatherlink.com 1.10,2013-01-26 16:25:00,
2013-01-26 11:40:00,27.3,19.0,30.42,NNE,22,3.0,9.0,72,0.00,,,0.00,weatherlink.com 1.10,2013-01-26 16:40:00,
2013-01-26 11:55:00,28.3,20.0,30.42,North,350,5.0,5.0,70,0.00,,,0.00,weatherlink.com 1.10,2013-01-26 16:55:00,
2013-01-26 12:10:00,28.6,20.0,30.42,NE,36,2.0,8.0,70,0.00,,,0.00,weatherlink.com 1.10,2013-01-26 17:10:00,
2013-01-26 12:25:00,29.2,20.0,30.42,NW,314,5.0,8.0,68,0.00,,,0.00,weatherlink.com 1.10,2013-01-26 17:25:00,
2013-01-26 12:40:00,29.5,20.0,30.41,NW,304,3.0,5.0,67,0.00,,,0.00,weatherlink.com 1.10,2013-01-26 17:40:00,
2013-01-26 12:55:00,30.0,20.0,30.41,NW,326,5.0,8.0,66,0.00,,,0.00,weatherlink.com 1.10,2013-01-26 17:55:00,
2013-01-26 13:10:00,29.9,19.0,30.40,NW,325,2.0,4.0,65,0.00,,,0.00,weatherlink.com 1.10,2013-01-26 18:10:00,
2013-01-26 13:25:00,30.6,20.0,30.39,SW,225,1.0,5.0,65,0.00,,,0.00,weatherlink.com 1.10,2013-01-26 18:25:00,
2013-01-26 13:40:00,30.4,19.0,30.39,NNW,332,5.0,9.0,64,0.00,,,0.00,weatherlink.com 1.10,2013-01-26 18:40:00,
2013-01-26 13:55:00,31.2,21.0,30.39,NW,321,2.0,5.0,65,0.00,,,0.00,weatherlink.com 1.10,2013-01-26 18:55:00,
2013-01-26 14:11:00,31.0,19.0,30.39,NNW,348,4.0,5.0,62,0.00,,,0.00,weatherlink.com 1.10,2013-01-26 19:11:00,
2013-01-26 14:26:00,31.4,19.0,30.39,SW,235,1.0,6.0,60,0.00,,,0.00,weatherlink.com 1.10,2013-01-26 19:26:00,
2013-01-26 14:41:00,31.6,19.0,30.39,North,5,1.0,5.0,61,0.00,,,0.00,weatherlink.com 1.10,2013-01-26 19:41:00,
2013-01-26 14:56:00,32.0,19.0,30.40,NNW,344,1.0,5.0,60,0.00,,,0.00,weatherlink.com 1.10,2013-01-26 19:56:00,
2013-01-26 15:11:00,32.8,20.0,30.41,North,350,6.0,6.0,59,0.00,,,0.00,weatherlink.com 1.10,2013-01-26 20:11:00,
2013-01-26 15:26:00,32.6,19.0,30.41,North,349,2.0,7.0,57,0.00,,,0.00,weatherlink.com 1.10,2013-01-26 20:26:00,
2013-01-26 15:41:00,32.8,19.0,30.41,NW,325,5.0,6.0,58,0.00,,,0.00,weatherlink.com 1.10,2013-01-26 20:41:00,
2013-01-26 15:56:00,32.6,19.0,30.41,North,4,2.0,6.0,58,0.00,,,0.00,weatherlink.com 1.10,2013-01-26 20:56:00,
2013-01-26 16:11:00,33.2,19.0,30.42,NNE,32,1.0,3.0,57,0.00,,,0.00,weatherlink.com 1.10,2013-01-26 21:11:00,
2013-01-26 16:26:00,32.6,19.0,30.43,NNE,23,2.0,7.0,58,0.00,,,0.00,weatherlink.com 1.10,2013-01-26 21:26:00,
2013-01-26 16:41:00,32.6,20.0,30.43,NW,318,2.0,5.0,59,0.00,,,0.00,weatherlink.com 1.10,2013-01-26 21:41:00,
2013-01-26 16:56:00,32.6,20.0,30.43,NNE,27,3.0,6.0,60,0.00,,,0.00,weatherlink.com 1.10,2013-01-26 21:56:00,
2013-01-26 17:11:00,32.3,20.0,30.42,North,355,4.0,5.0,60,0.00,,,0.00,weatherlink.com 1.10,2013-01-26 22:11:00,
2013-01-26 17:26:00,32.1,20.0,30.43,WNW,283,1.0,4.0,61,0.00,,,0.00,weatherlink.com 1.10,2013-01-26 22:26:00,
2013-01-26 17:41:00,30.9,20.0,30.43,NNW,342,3.0,5.0,63,0.00,,,0.00,weatherlink.com 1.10,2013-01-26 22:41:00,
2013-01-26 17:56:00,30.2,19.0,30.44,NNE,15,2.0,4.0,64,0.00,,,0.00,weatherlink.com 1.10,2013-01-26 22:56:00,
2013-01-26 18:11:00,29.4,19.0,30.45,NNW,346,1.0,3.0,66,0.00,,,0.00,weatherlink.com 1.10,2013-01-26 23:11:00,
2013-01-26 18:26:00,28.9,19.0,30.45,North,356,1.0,3.0,67,0.00,,,0.00,weatherlink.com 1.10,2013-01-26 23:26:00,
2013-01-26 18:41:00,28.5,19.0,30.44,NE,37,1.0,5.0,68,0.00,,,0.00,weatherlink.com 1.10,2013-01-26 23:41:00,
2013-01-26 18:56:00,28.2,19.0,30.45,North,355,4.0,5.0,69,0.00,,,0.00,weatherlink.com 1.10,2013-01-26 23:56:00,
2013-01-26 19:11:00,27.7,19.0,30.45,NNW,342,3.0,3.0,70,0.00,,,0.00,weatherlink.com 1.10,2013-01-27 00:11:00,
2013-01-26 19:26:00,27.2,19.0,30.46,NNW,339,2.0,3.0,71,0.00,,,0.00,weatherlink.com 1.10,2013-01-27 00:26:00,
2013-01-26 19:41:00,26.7,19.0,30.47,North,350,1.0,4.0,72,0.00,,,0.00,weatherlink.com 1.10,2013-01-27 00:41:00,
2013-01-26 19:56:00,26.5,19.0,30.47,NNE,27,1.0,4.0,73,0.00,,,0.00,weatherlink.com 1.10,2013-01-27 00:56:00,
2013-01-26 20:11:00,26.2,19.0,30.47,NNE,12,0.0,4.0,73,0.00,,,0.00,weatherlink.com 1.10,2013-01-27 01:11:00,
2013-01-26 20:26:00,26.0,19.0,30.48,North,9,1.0,3.0,74,0.00,,,0.00,weatherlink.com 1.10,2013-01-27 01:26:00,
2013-01-26 20:41:00,25.8,19.0,30.49,North,360,1.0,2.0,74,0.00,,,0.00,weatherlink.com 1.10,2013-01-27 01:41:00,
2013-01-26 20:56:00,25.4,18.0,30.49,North,352,0.0,2.0,74,0.00,,,0.00,weatherlink.com 1.10,2013-01-27 01:56:00,
2013-01-26 21:11:00,25.1,18.0,30.50,NNW,348,0.0,2.0,75,0.00,,,0.00,weatherlink.com 1.10,2013-01-27 02:11:00,
2013-01-26 21:26:00,24.7,18.0,30.49,NNE,23,0.0,1.0,75,0.00,,,0.00,weatherlink.com 1.10,2013-01-27 02:26:00,
2013-01-26 21:41:00,24.2,18.0,30.50,NNE,26,0.0,0.0,76,0.00,,,0.00,weatherlink.com 1.10,2013-01-27 02:41:00,
2013-01-26 21:56:00,23.4,18.0,30.49,NNE,13,0.0,0.0,78,0.00,,,0.00,weatherlink.com 1.10,2013-01-27 02:56:00,
2013-01-26 22:11:00,23.1,18.0,30.50,North,352,0.0,2.0,79,0.00,,,0.00,weatherlink.com 1.10,2013-01-27 03:11:00,
2013-01-26 22:26:00,22.6,17.0,30.50,North,351,0.0,0.0,79,0.00,,,0.00,weatherlink.com 1.10,2013-01-27 03:26:00,
2013-01-26 22:41:00,22.6,18.0,30.50,NNW,348,0.0,2.0,81,0.00,,,0.00,weatherlink.com 1.10,2013-01-27 03:41:00,
2013-01-26 22:56:00,22.7,17.0,30.50,North,8,0.0,1.0,80,0.00,,,0.00,weatherlink.com 1.10,2013-01-27 03:56:00,
2013-01-26 23:11:00,22.7,17.0,30.51,North,8,0.0,0.0,80,0.00,,,0.00,weatherlink.com 1.10,2013-01-27 04:11:00,
2013-01-26 23:26:00,22.9,18.0,30.51,NNE,32,0.0,1.0,80,0.00,,,0.00,weatherlink.com 1.10,2013-01-27 04:26:00,
2013-01-26 23:41:00,22.9,18.0,30.51,NNW,338,0.0,0.0,80,0.00,,,0.00,weatherlink.com 1.10,2013-01-27 04:41:00,
2013-01-26 23:56:00,22.6,18.0,30.51,North,350,0.0,1.0,81,0.00,,,0.00,weatherlink.com 1.10,2013-01-27 04:56:00,